Location: Chevoux
(46.3801°N, 4.9476°E)
Time: 22:44:39
(UTC+00:00)

Cosmos-2242 - Pass Details

Date: 28 January 2021
Orbit: 591 x 616 km, 82.5° (Epoch: 03 March)

Event Time Altitude Azimuth Distance (km) Brightness Sun altitude
Rises 18:40:46 0° 344° (NNW) 2,853 6.6 -21.0°
Reaches altitude 10° 18:43:03 10° 338° (NNW) 1,949 5.8 -21.4°
Maximum altitude 18:47:07 43° 267° (W) 849 4.2 -22.1°
Drops below altitude 10° 18:51:12 10° 196° (SSW) 1,948 5.8 -22.8°
Sets 18:53:29 0° 190° (S) 2,850 6.6 -23.2°
